Location: Acurenam
(1.0323°N, 10.6488°E)
Time: 08:44:38
(UTC+00:00)

Daily predictions for brighter satellites

Satellite Brightness Start Highest point End
(mag) Time Altitude Azimuth Time Altitude Azimuth Time Altitude Azimuth
Ariane H10 4.3 17:24:54 10° WNW 17:28:07 60° N 17:42:44 10° E
ARIANE 5 R/B 3.9 17:27:22 10° W 17:31:10 58° S 17:44:50 10° ESE
Cosmos 1602 4.0 17:35:25 10° N 17:39:12 71° W 17:43:00 10° S
STARLINK-1173 3.7 17:36:14 10° NW 17:40:06 72° SW 17:44:00 10° SSE
STARLINK-1184 3.5 17:36:36 10° NW 17:40:20 76° SW 17:44:04 10° SSE
OAO 2 Rocket 3.7 17:36:44 10° NW 17:41:57 58° NE 17:47:10 10° ESE
STARLINK-1127 3.6 17:39:24 10° NW 17:43:07 69° WSW 17:46:52 10° SSE
STARLINK-1142 3.8 17:42:16 10° NW 17:45:57 63° WSW 17:49:40 10° SSE
Palapa B4 Rocket 2.9 17:42:43 10° WNW 17:46:36 61° SSW 17:50:18 10° ESE
Cosmos 1862 Rocket 3.5 17:43:08 10° S 17:47:35 70° E 17:51:58 10° N
Cosmos 2242 Rocket 4.4 17:44:36 10° SSE 17:48:26 29° E 17:52:13 10° NNE
STARLINK-1137 3.9 17:45:08 10° NW 17:48:49 57° SW 17:52:32 10° SSE
STARLINK-1136 4.3 17:47:35 10° NW 17:51:21 48° SW 17:55:09 10° SSE
STARLINK-1195 4.1 17:48:05 10° NW 17:51:44 51° SW 17:55:24 10° SSE
IRS-1C Rocket 4.4 17:46:41 10° S 17:51:55 72° WSW 17:57:08 10° NNW
ATLAS 5 CENTAUR R/B 0.7 17:49:50 10° W 17:52:02 57° SSW 17:57:02 11° ESE
Cosmos 389 Rocket 3.2 17:49:41 10° SSE 17:52:43 30° E 17:55:45 10° NNE
Cosmos 1869 Rocket 3.5 17:49:55 10° N 17:54:13 81° E 17:58:33 10° S
ARIANE 5 DEB (SYLDA) 3.4 17:42:14 10° W 17:54:15 75° S 17:58:53 11° E
STARLINK-1152 4.3 17:51:04 10° NW 17:54:41 46° SW 17:58:19 10° SSE
Cosmos 1939 Rocket 3.3 17:51:28 10° SSE 17:55:15 41° ENE 17:59:03 10° N
STARLINK-60 4.1 17:55:48 10° S 17:58:24 23° SE 18:00:59 10° ENE
GPS 2-15 Rocket1 3.2 17:53:44 10° WNW 17:58:26 68° SSW 18:02:25 14° ESE
Cosmos 1733 Rocket 4.3 17:59:38 10° NE 18:02:57 22° E 18:05:14 15° SE
Cosmos 1420 Rocket 4.5 18:01:18 10° S 18:06:07 37° ESE 18:10:53 10° NE
CZ-4 R/B 1.4 18:03:23 10° SSE 18:07:30 65° ENE 18:11:39 10° N
Ariane H10+ 2.3 18:07:16 10° WSW 18:09:02 19° S 18:09:22 18° S
Geosat 4.0 18:04:29 10° SSE 18:09:28 67° ENE 18:14:26 10° NNW
Milstar 3 Cent rocket 2.9 18:05:21 10° WSW 18:10:11 62° NNW 18:18:03 10° NE
ARIANE 3 DEB 4.1 18:00:50 10° W 18:10:13 65° N 18:14:01 12° ENE
NOSS 2-2 (C) 4.4 18:08:33 10° S 18:12:39 26° ESE 18:16:01 10° ENE
ARGOS Delta rocket 3.9 18:08:39 10° S 18:13:40 87° WSW 18:18:22 10° N
CZ-2C R/B 3.7 18:11:15 10° NE 18:15:37 24° ESE 18:18:34 16° SE
Cosmos 1461 2.7 18:13:34 10° S 18:17:20 56° ESE 18:21:13 10° NNE
CZ-2D R/B 3.1 18:15:07 10° SSE 18:18:59 82° E 18:22:50 10° N
Genesis I 4.1 18:18:10 10° NW 18:21:49 46° WSW 18:25:25 10° S
Cosmos 1703 Rocket 3.6 18:18:28 10° S 18:22:43 53° E 18:26:55 10° NNE
STARLINK-1174 4.3 18:19:21 10° NNW 18:23:11 37° NE 18:24:38 28° E
DELTA 2 R/B (1) 4.0 18:19:16 10° NNW 18:24:34 47° NE 18:27:26 25° ESE
Cosmos 1500 3.9 18:21:34 10° NNW 18:25:17 53° W 18:29:00 10° S
Starlink 7 placeholder 4.2 18:23:44 10° SW 18:26:07 33° WNW 18:28:21 10° N
Meteor 1-11 Rocket 3.6 18:21:37 10° N 18:27:06 71° E 18:32:36 10° S
STARLINK-1149 4.1 18:24:13 10° NNW 18:28:08 43° NE 18:29:23 33° E
Cosmos 1943 4.3 18:25:46 10° NW 18:31:03 43° WSW 18:36:20 10° S
GPS 2-14 Rocket1 3.6 18:28:17 10° W 18:32:20 49° NNW 18:35:25 16° NE
HJ-1C 3.9 18:33:00 37° ENE 18:33:00 37° ENE 18:35:52 10° N
STARLINK-1180 3.9 18:29:06 10° NNW 18:33:06 51° NE 18:34:11 39° ESE
DMSP B5D2-2 4.4 18:28:38 10° NNE 18:33:30 40° ESE 18:36:43 19° SSE
FALCON 9 R/B 3.2 18:27:30 10° WSW 18:33:32 34° NW 18:36:15 10° NNE
Cosmos 2278 Rocket 3.2 18:31:42 10° SSW 18:37:07 47° WNW 18:42:31 10° N
Cosmos 1536 2.7 18:33:27 10° N 18:37:27 66° E 18:38:58 36° SSE
STARLINK-1153 3.7 18:34:02 10° NNW 18:38:05 60° NE 18:38:59 47° ESE
MOS 1 Rocket 3.1 18:35:56 10° NNE 18:40:06 55° E 18:42:07 29° SSE
Cosmos 1816 Rocket 4.4 18:35:58 10° S 18:42:10 85° E 18:48:17 10° N
STARLINK-1132 3.5 18:38:57 10° NNW 18:43:03 71° NE 18:43:46 56° ESE
Cosmos 1515 3.6 18:43:54 61° ESE 18:44:04 62° E 18:47:48 10° NNE
Cosmos 1666 2.6 18:42:50 10° N 18:46:37 81° W 18:47:44 44° S
STARLINK-1177 3.5 18:43:55 10° NNW 18:48:02 83° NE 18:48:34 66° SE
Ariane Rocket 3.8 18:52:49 33° ENE 18:52:49 33° ENE 18:56:41 10° NNE
Cosmos 371 Rocket 3.2 18:48:07 10° SSW 18:52:56 90° WNW 18:57:46 10° NNE
STARLINK-1167 3.5 18:48:53 10° NW 18:53:01 85° SW 18:53:21 74° SSE
Atlas Centaur 2 4.3 18:48:55 10° W 18:55:20 28° SSW 18:59:26 19° SSE
STARLINK-1168 3.6 18:53:50 10° NW 18:57:57 73° WSW 18:58:07 71° SSW
SL-4 R/B 3.0 18:53:59 10° SW 18:58:05 51° NW 19:02:29 10° NNE
SJ-11-01 4.1 18:58:16 62° SSE 18:59:01 80° ENE 19:03:43 10° N
Cosmos 2034 Rocket 4.1 18:53:33 10° NNE 18:59:27 50° E 18:59:54 49° ESE
Cosmos 1513 Rocket 4.4 18:53:30 10° N 18:59:41 83° E 19:02:58 31° S
CSL-04 Rocket 4.2 18:57:12 16° S 19:01:24 56° WSW 19:06:45 10° NNW
H-2A R/B 1.9 19:01:34 59° ENE 19:01:34 59° ENE 19:06:21 10° N
Okean 1-7 4.0 18:57:47 10° SSW 19:01:54 44° W 19:05:59 10° NNW
STARLINK-1164 3.9 18:58:50 10° NW 19:02:53 62° WSW 19:02:53 62° WSW
Skynet4D Del rocket 4.4 18:59:09 10° SW 19:07:32 72° SSE 19:10:20 45° E
STARLINK-1182 4.2 19:03:52 10° NW 19:07:41 52° WSW 19:07:41 52° WSW
DNEPR-1 R/B 4.2 19:09:05 10° NNW 19:12:34 49° N 19:12:34 49° N
Cosmos 1464 Rocket 4.3 19:11:24 10° N 19:17:41 67° W 19:20:50 31° SSW
H-2A ROCKET BODY 4.3 19:24:34 10° NW 19:26:48 15° N 19:30:41 10° NNE
ARGOS 3.6 19:34:17 57° NW 19:34:17 57° NW 19:38:33 10° NNW
Meteor 2-4 Rocket 4.3 19:33:50 47° WSW 19:34:38 52° W 19:39:50 10° N
Gbstr 26 Del rocket 4.2 19:30:22 10° NW 19:37:48 66° WSW 19:37:55 65° SW
Cosmos 2297 4.4 19:41:00 50° W 19:41:26 51° WNW 19:46:53 10° N
CZ-2C R/B 4.3 19:45:56 36° W 19:45:56 36° W 19:50:43 10° NW
ARIANE 5 R/B 3.9 19:31:34 10° W 19:47:13 71° NW 19:47:13 71° NW
USA 267 3.7 19:58:37 58° WNW 19:58:37 58° WNW 20:03:47 10° NW
ARIANE 5 R/B 3.8 19:29:38 10° W 20:03:53 75° W 20:03:53 75° W
Ariane H10+ 4.4 19:59:25 10° W 20:37:53 71° N 20:39:16 68° NNE
